カタログに戻る

STRIX-5

運用中科学VLEO
NORAD 65971·PAYLOAD·🇯🇵 Japan

打ち上げ Oct 14, 2025 から Rocket Lab Launch Complex 1

Loading…

次のパス (今後24時間)

TLE

最新Source: Space-Track

元期: Sep 14, 2026, 02:45 UTC

1 65971U 25229A   26257.11504667  .00003505  00000-0  25272-3 0  9994
2 65971  41.9274 154.0702 0037449 275.9786  83.6773 15.04974839 50376

AllMySatでSTRIX-5をリアルタイム追跡

Download on the App Store